,,,PA_Meas_PMT16A,,PR_Meas_QMR101_102,,RH_Meas_QMH101,,SR_Meas_QMS101,,TA_Meas_QMH101,,GenWind,,GenWind,
date,time,status,PA,status,PR,status,RH,status,SR,status,TA,status,DirAvg,status,SpdAvg,
2012-06-07, 00:00:04,VALID,1007.33,VALID,0,VALID,104,VALID,0,VALID,23.0493,VALID,89,VALID,1.01641,
2012-06-07, 00:01:04,VALID,1007.3,VALID,0,VALID,104,VALID,0.112112,VALID,23.0511,VALID,73,VALID,0.857422,
2012-06-07, 00:02:04,VALID,1007.28,VALID,0,VALID,104,VALID,0.112112,VALID,23.0493,VALID,77,VALID,0.666406,
2012-06-07, 00:03:04,VALID,1007.28,VALID,0,VALID,104,VALID,0.112112,VALID,23.0298,VALID,92,VALID,1.0625,
2012-06-07, 00:04:04,VALID,1007.28,VALID,0,VALID,104,VALID,0,VALID,23.0511,VALID,91,VALID,1.53984,
2012-06-07, 00:05:04,VALID,1007.28,VALID,0,VALID,104,VALID,0,VALID,23.0103,VALID,99,VALID,0.688281,
2012-06-07, 00:06:04,VALID,1007.29,VALID,0,VALID,104,VALID,0,VALID,23.0298,VALID,107,VALID,1.00586,
2012-06-07, 00:07:04,VALID,1007.31,VALID,0,VALID,104,VALID,0,VALID,23.0316,VALID,86,VALID,0.392969,
2012-06-07, 00:08:04,VALID,1007.34,VALID,0,VALID,104,VALID,0,VALID,23.0316,VALID,86,VALID,0.296875,
2012-06-07, 00:09:04,VALID,1007.31,VALID,0,VALID,104,VALID,0,VALID,23.0316,VALID,111,VALID,0.730859,
2012-06-07, 00:10:04,VALID,1007.32,VALID,0,VALID,104,VALID,0.112112,VALID,23.0511,VALID,102,VALID,0.979297,
2012-06-07, 00:11:04,VALID,1007.27,VALID,0,VALID,104,VALID,0,VALID,23.0316,VALID,100,VALID,0.829297,
2012-06-07, 00:12:04,VALID,1007.28,VALID,0,VALID,104,VALID,0,VALID,23.0316,VALID,119,VALID,0.565234,
2012-06-07, 00:13:04,VALID,1007.25,VALID,0,VALID,104,VALID,0,VALID,23.0103,VALID,119,VALID,0.275391,
2012-06-07, 00:14:04,VALID,1007.23,VALID,0,VALID,104,VALID,0,VALID,23.0121,VALID,108,VALID,0.944922,
2012-06-07, 00:15:04,VALID,1007.21,VALID,0,VALID,104,VALID,0.112112,VALID,23.0103,VALID,94,VALID,0.975781,
2012-06-07, 00:16:04,VALID,1007.2,VALID,0,VALID,104,VALID,0,VALID,23.0316,VALID,91,VALID,0.817187,
2012-06-07, 00:17:04,VALID,1007.2,VALID,0,VALID,104,VALID,0,VALID,23.0121,VALID,85,VALID,1.01992,
2012-06-07, 00:18:04,VALID,1007.15,VALID,0,VALID,104,VALID,0,VALID,23.0121,VALID,97,VALID,1.51992,
2012-06-07, 00:19:04,VALID,1007.15,VALID,0,VALID,104,VALID,0.112112,VALID,22.9909,VALID,84,VALID,0.857422,
2012-06-07, 00:20:04,VALID,1007.15,VALID,0,VALID,104,VALID,0,VALID,23.0121,VALID,85,VALID,0.816797,
2012-06-07, 00:21:04,VALID,1007.11,VALID,0,VALID,104,VALID,0,VALID,22.9909,VALID,85,VALID,1.04102,
2012-06-07, 00:22:04,VALID,1007.09,VALID,0,VALID,104,VALID,0,VALID,23.0103,VALID,96,VALID,0.739844,
2012-06-07, 00:23:04,VALID,1007.11,VALID,0,VALID,104,VALID,0,VALID,23.0121,VALID,90,VALID,0.805859,
2012-06-07, 00:24:04,VALID,1007.09,VALID,0,VALID,104,VALID,0.112112,VALID,23.0121,VALID,87,VALID,0.825,
2012-06-07, 00:25:04,VALID,1007.09,VALID,0,VALID,104,VALID,0,VALID,23.0121,VALID,64,VALID,0.773828,
2012-06-07, 00:26:04,VALID,1007.08,VALID,0,VALID,104,VALID,0.112112,VALID,22.9926,VALID,51,VALID,1.08242,
2012-06-07, 00:27:04,VALID,1007.08,VALID,0,VALID,104,VALID,0,VALID,22.9926,VALID,68,VALID,1.08906,
2012-06-07, 00:28:04,VALID,1007.06,VALID,0,VALID,104,VALID,0,VALID,22.9731,VALID,55,VALID,1.00391,
2012-06-07, 00:29:04,VALID,1007.07,VALID,0,VALID,104,VALID,0,VALID,22.9731,VALID,63,VALID,1.04766,
2012-06-07, 00:30:04,VALID,1007.06,VALID,0,VALID,104,VALID,0,VALID,22.9536,VALID,83,VALID,1.03125,
2012-06-07, 00:31:04,VALID,1007.06,VALID,0,VALID,104,VALID,0.112112,VALID,22.9519,VALID,83,VALID,0.830469,
2012-06-07, 00:32:04,VALID,1007.03,VALID,0,VALID,104,VALID,0,VALID,22.9731,VALID,75,VALID,1.0625,
2012-06-07, 00:33:04,VALID,1007,VALID,0,VALID,104,VALID,0.112112,VALID,22.9519,VALID,80,VALID,0.915625,
2012-06-07, 00:34:04,VALID,1007,VALID,0,VALID,104,VALID,0,VALID,22.9731,VALID,81,VALID,0.630859,
2012-06-07, 00:35:04,VALID,1006.99,VALID,0,VALID,104,VALID,0,VALID,22.9324,VALID,63,VALID,0.9625,
2012-06-07, 00:36:04,VALID,1006.96,VALID,0,VALID,104,VALID,0,VALID,22.9536,VALID,59,VALID,0.439844,
2012-06-07, 00:37:04,VALID,1006.96,VALID,0,VALID,104,VALID,0,VALID,22.9536,VALID,53,VALID,0.338672,
2012-06-07, 00:38:04,VALID,1006.96,VALID,0,VALID,104,VALID,0.112112,VALID,22.9342,VALID,53,VALID,0.552344,
2012-06-07, 00:39:04,VALID,1006.92,VALID,0,VALID,104,VALID,0.112112,VALID,22.9342,VALID,47,VALID,0.917578,
2012-06-07, 00:40:04,VALID,1006.89,VALID,0,VALID,104,VALID,0.112112,VALID,22.8935,VALID,73,VALID,0.6875,
2012-06-07, 00:41:04,VALID,1006.89,VALID,0,VALID,104,VALID,0.112112,VALID,22.8935,VALID,75,VALID,0.751562,
2012-06-07, 00:42:04,VALID,1006.85,VALID,0,VALID,104,VALID,0,VALID,22.874,VALID,53,VALID,0.68125,
2012-06-07, 00:43:04,VALID,1006.81,VALID,0,VALID,104,VALID,0,VALID,22.8952,VALID,55,VALID,0.410937,
2012-06-07, 00:44:04,VALID,1006.79,VALID,0,VALID,104,VALID,0,VALID,22.8952,VALID,55,VALID,0.517187,
2012-06-07, 00:45:04,VALID,1006.79,VALID,0,VALID,104,VALID,0,VALID,22.8952,VALID,54,VALID,0.7375,
2012-06-07, 00:46:04,VALID,1006.76,VALID,0,VALID,104,VALID,0,VALID,22.8757,VALID,74,VALID,0.904688,
2012-06-07, 00:47:04,VALID,1006.75,VALID,0,VALID,104,VALID,0,VALID,22.8757,VALID,67,VALID,1.2918,
2012-06-07, 00:48:04,VALID,1006.73,VALID,0,VALID,104,VALID,0,VALID,22.8562,VALID,63,VALID,1.13789,
2012-06-07, 00:49:04,VALID,1006.73,VALID,0,VALID,104,VALID,0,VALID,22.8562,VALID,72,VALID,0.88125,
2012-06-07, 00:50:04,VALID,1006.68,VALID,0,VALID,104,VALID,0.112112,VALID,22.8562,VALID,82,VALID,0.802734,
2012-06-07, 00:51:04,VALID,1006.69,VALID,0,VALID,104,VALID,0,VALID,22.835,VALID,78,VALID,0.837109,
2012-06-07, 00:52:04,VALID,1006.67,VALID,0,VALID,104,VALID,0.112112,VALID,22.835,VALID,68,VALID,0.540234,
2012-06-07, 00:53:04,VALID,1006.67,VALID,0,VALID,104,VALID,0,VALID,22.8368,VALID,68,VALID,0.580078,
2012-06-07, 00:54:04,VALID,1006.64,VALID,0,VALID,104,VALID,0.112112,VALID,22.8368,VALID,68,VALID,0.416406,
2012-06-07, 00:55:04,VALID,1006.65,VALID,0,VALID,104,VALID,0,VALID,22.8173,VALID,49,VALID,0.855469,
2012-06-07, 00:56:04,VALID,1006.63,VALID,0,VALID,104,VALID,0,VALID,22.8173,VALID,54,VALID,0.76875,
2012-06-07, 00:57:04,VALID,1006.63,VALID,0,VALID,104,VALID,0,VALID,22.8173,VALID,61,VALID,0.563672,
2012-06-07, 00:58:04,VALID,1006.58,VALID,0,VALID,104,VALID,0,VALID,22.7978,VALID,61,VALID,0.489844,
2012-06-07, 00:59:04,VALID,1006.56,VALID,0,VALID,104,VALID,0,VALID,22.7978,VALID,61,VALID,0.375391,
2012-06-07, 01:00:04,VALID,1006.58,VALID,0,VALID,104,VALID,0,VALID,22.7571,VALID,61,VALID,0.34375,
2012-06-07, 01:01:04,VALID,1006.57,VALID,0,VALID,104,VALID,0,VALID,22.7766,VALID,61,VALID,0.278906,
2012-06-07, 01:02:04,VALID,1006.53,VALID,0,VALID,104,VALID,0,VALID,22.7783,VALID,61,VALID,0.447266,
2012-06-07, 01:03:04,VALID,1006.52,VALID,0,VALID,104,VALID,0.112112,VALID,22.7766,VALID,61,VALID,0.235156,
2012-06-07, 01:04:04,VALID,1006.49,VALID,0,VALID,104,VALID,0,VALID,22.7783,VALID,63,VALID,1.14219,
2012-06-07, 01:05:04,VALID,1006.5,VALID,0,VALID,104,VALID,0,VALID,22.7783,VALID,83,VALID,1.13398,
2012-06-07, 01:06:04,VALID,1006.45,VALID,0,VALID,104,VALID,0,VALID,22.7571,VALID,84,VALID,0.544922,
2012-06-07, 01:07:04,VALID,1006.44,VALID,0,VALID,104,VALID,0,VALID,22.7571,VALID,84,VALID,0.728516,
2012-06-07, 01:08:04,VALID,1006.43,VALID,0,VALID,104,VALID,0,VALID,22.7783,VALID,95,VALID,0.814844,
2012-06-07, 01:09:04,VALID,1006.4,VALID,0,VALID,104,VALID,0.112112,VALID,22.7571,VALID,84,VALID,0.73125,
2012-06-07, 01:10:04,VALID,1006.37,VALID,0,VALID,104,VALID,0.112112,VALID,22.7571,VALID,63,VALID,0.265234,
2012-06-07, 01:11:04,VALID,1006.38,VALID,0,VALID,104,VALID,0,VALID,22.7766,VALID,67,VALID,0.850781,
2012-06-07, 01:12:04,VALID,1006.36,VALID,0,VALID,104,VALID,0.112112,VALID,22.7571,VALID,67,VALID,0.660156,
2012-06-07, 01:13:04,VALID,1006.33,VALID,0,VALID,104,VALID,0,VALID,22.7978,VALID,79,VALID,0.844141,
2012-06-07, 01:14:04,VALID,1006.34,VALID,0,VALID,104,VALID,0.112112,VALID,22.7961,VALID,109,VALID,0.320313,
2012-06-07, 01:15:04,VALID,1006.36,VALID,0,VALID,104,VALID,0.112112,VALID,22.8368,VALID,111,VALID,0.517969,
2012-06-07, 01:16:04,VALID,1006.35,VALID,0,VALID,104,VALID,0.112112,VALID,22.8155,VALID,138,VALID,0.984375,
2012-06-07, 01:17:04,VALID,1006.33,VALID,0,VALID,104,VALID,0,VALID,22.8368,VALID,133,VALID,0.871094,
2012-06-07, 01:18:04,VALID,1006.35,VALID,0,VALID,104,VALID,0.112112,VALID,22.8155,VALID,126,VALID,0.516797,
2012-06-07, 01:19:04,VALID,1006.36,VALID,0,VALID,104,VALID,0.112112,VALID,22.835,VALID,128,VALID,0.925,
2012-06-07, 01:20:04,VALID,1006.36,VALID,0,VALID,104,VALID,0.112112,VALID,22.835,VALID,128,VALID,0.70625,
2012-06-07, 01:21:04,VALID,1006.36,VALID,0,VALID,104,VALID,0.112112,VALID,22.8155,VALID,131,VALID,0.938672,
2012-06-07, 01:22:04,VALID,1006.34,VALID,0,VALID,104,VALID,0,VALID,22.8155,VALID,137,VALID,0.518359,
2012-06-07, 01:23:04,VALID,1006.31,VALID,0,VALID,104,VALID,0.112112,VALID,22.8138,VALID,130,VALID,1.01445,
2012-06-07, 01:24:04,VALID,1006.34,VALID,0,VALID,104,VALID,0,VALID,22.8368,VALID,122,VALID,0.864062,
2012-06-07, 01:25:04,VALID,1006.31,VALID,0,VALID,104,VALID,0,VALID,22.8173,VALID,125,VALID,0.702344,
2012-06-07, 01:26:04,VALID,1006.32,VALID,0,VALID,104,VALID,0,VALID,22.8368,VALID,123,VALID,0.424609,
2012-06-07, 01:27:04,VALID,1006.31,VALID,0,VALID,104,VALID,0,VALID,22.8368,VALID,126,VALID,0.883594,
2012-06-07, 01:28:04,VALID,1006.3,VALID,0,VALID,104,VALID,0,VALID,22.8368,VALID,109,VALID,0.775391,
2012-06-07, 01:29:04,VALID,1006.3,VALID,0,VALID,104,VALID,0,VALID,22.8562,VALID,110,VALID,0.340234,
2012-06-07, 01:30:04,VALID,1006.31,VALID,0,VALID,104,VALID,0,VALID,22.8775,VALID,110,VALID,0.514063,
2012-06-07, 01:31:04,VALID,1006.33,VALID,0,VALID,104,VALID,0,VALID,22.8775,VALID,110,VALID,0.797656,
2012-06-07, 01:32:04,VALID,1006.33,VALID,0,VALID,104,VALID,0,VALID,22.8562,VALID,113,VALID,0.558984,
2012-06-07, 01:33:04,VALID,1006.32,VALID,0,VALID,104,VALID,0,VALID,22.8775,VALID,113,VALID,0.163281,
2012-06-07, 01:34:04,VALID,1006.34,VALID,0,VALID,104,VALID,0,VALID,22.8757,VALID,120,VALID,0.867188,
2012-06-07, 01:35:04,VALID,1006.35,VALID,0,VALID,104,VALID,0,VALID,22.8757,VALID,124,VALID,0.910547,
2012-06-07, 01:36:04,VALID,1006.33,VALID,0,VALID,104,VALID,0,VALID,22.8757,VALID,112,VALID,0.573047,
2012-06-07, 01:37:04,VALID,1006.36,VALID,0,VALID,104,VALID,0,VALID,22.9164,VALID,112,VALID,0.490625,
2012-06-07, 01:38:04,VALID,1006.34,VALID,0,VALID,104,VALID,0,VALID,22.9164,VALID,79,VALID,0.789453,
2012-06-07, 01:39:04,VALID,1006.36,VALID,0,VALID,104,VALID,0.112112,VALID,22.8935,VALID,83,VALID,0.7125,
2012-06-07, 01:40:04,VALID,1006.35,VALID,0,VALID,104,VALID,0.112112,VALID,22.8935,VALID,83,VALID,0.504297,
2012-06-07, 01:41:04,VALID,1006.37,VALID,0,VALID,104,VALID,0,VALID,22.8935,VALID,87,VALID,0.520703,
2012-06-07, 01:42:04,VALID,1006.35,VALID,0,VALID,104,VALID,0,VALID,22.8935,VALID,87,VALID,0.472266,
2012-06-07, 01:43:04,VALID,1006.38,VALID,0,VALID,104,VALID,0.112112,VALID,22.9147,VALID,87,VALID,0.628906,
2012-06-07, 01:44:04,VALID,1006.35,VALID,0,VALID,104,VALID,0.112112,VALID,22.8935,VALID,87,VALID,0.368359,
2012-06-07, 01:45:04,VALID,1006.37,VALID,0,VALID,104,VALID,0.112112,VALID,22.9342,VALID,87,VALID,0.0222656,
2012-06-07, 01:46:04,VALID,1006.37,VALID,0,VALID,104,VALID,0,VALID,22.9147,VALID,85,VALID,0.541797,
2012-06-07, 01:47:04,VALID,1006.37,VALID,0,VALID,104,VALID,0,VALID,22.9342,VALID,77,VALID,0.489844,
2012-06-07, 01:48:04,VALID,1006.36,VALID,0,VALID,104,VALID,0,VALID,22.9129,VALID,95,VALID,0.382422,
2012-06-07, 01:49:04,VALID,1006.35,VALID,0,VALID,104,VALID,0,VALID,22.9342,VALID,95,VALID,0.567969,
2012-06-07, 01:50:04,VALID,1006.37,VALID,0,VALID,104,VALID,0,VALID,22.9342,VALID,83,VALID,0.761328,
2012-06-07, 01:51:04,VALID,1006.35,VALID,0,VALID,104,VALID,0,VALID,22.9342,VALID,102,VALID,0.753125,
2012-06-07, 01:52:04,VALID,1006.36,VALID,0,VALID,104,VALID,0,VALID,22.9324,VALID,99,VALID,0.778516,
2012-06-07, 01:53:04,VALID,1006.37,VALID,0,VALID,104,VALID,0.112112,VALID,22.9324,VALID,101,VALID,0.533203,
2012-06-07, 01:54:04,VALID,1006.39,VALID,0,VALID,104,VALID,0,VALID,22.9342,VALID,115,VALID,1.18711,
2012-06-07, 01:55:04,VALID,1006.39,VALID,0,VALID,104,VALID,0.112112,VALID,22.9324,VALID,96,VALID,1.10234,
2012-06-07, 01:56:04,VALID,1006.4,VALID,0,VALID,104,VALID,0,VALID,22.9536,VALID,107,VALID,0.995313,
2012-06-07, 01:57:04,VALID,1006.4,VALID,0,VALID,104,VALID,0,VALID,22.9731,VALID,90,VALID,0.912891,
2012-06-07, 01:58:04,VALID,1006.38,VALID,0,VALID,104,VALID,0.112112,VALID,22.9731,VALID,83,VALID,0.687891,
2012-06-07, 01:59:04,VALID,1006.39,VALID,0,VALID,104,VALID,0.112112,VALID,22.9536,VALID,83,VALID,1.24297,
2012-06-07, 02:00:04,VALID,1006.41,VALID,0,VALID,104,VALID,0,VALID,22.9926,VALID,88,VALID,0.852734,
2012-06-07, 02:01:04,VALID,1006.42,VALID,0,VALID,104,VALID,0,VALID,22.9926,VALID,87,VALID,1.00391,
2012-06-07, 02:02:04,VALID,1006.43,VALID,0,VALID,104,VALID,0.112112,VALID,22.9731,VALID,102,VALID,0.896094,
2012-06-07, 02:03:04,VALID,1006.43,VALID,0,VALID,104,VALID,0,VALID,22.9926,VALID,107,VALID,0.879687,
2012-06-07, 02:04:04,VALID,1006.42,VALID,0,VALID,104,VALID,0,VALID,22.9731,VALID,102,VALID,0.7125,
2012-06-07, 02:05:04,VALID,1006.42,VALID,0,VALID,104,VALID,0,VALID,22.9926,VALID,100,VALID,0.589453,
2012-06-07, 02:06:04,VALID,1006.4,VALID,0,VALID,104,VALID,0,VALID,22.9714,VALID,123,VALID,1.0082,
2012-06-07, 02:07:04,VALID,1006.39,VALID,0,VALID,104,VALID,0,VALID,22.9926,VALID,119,VALID,0.611719,
2012-06-07, 02:08:04,VALID,1006.36,VALID,0,VALID,104,VALID,0,VALID,22.9926,VALID,119,VALID,0.638672,
2012-06-07, 02:09:04,VALID,1006.36,VALID,0,VALID,104,VALID,0,VALID,22.9731,VALID,119,VALID,0.591016,
2012-06-07, 02:10:04,VALID,1006.38,VALID,0,VALID,104,VALID,0,VALID,22.9731,VALID,115,VALID,0.340625,
2012-06-07, 02:11:04,VALID,1006.38,VALID,0,VALID,104,VALID,0,VALID,22.9731,VALID,115,VALID,0.710547,
2012-06-07, 02:12:04,VALID,1006.39,VALID,0,VALID,104,VALID,0,VALID,22.9536,VALID,115,VALID,0.911719,
2012-06-07, 02:13:04,VALID,1006.38,VALID,0,VALID,104,VALID,0,VALID,22.9536,VALID,113,VALID,0.567969,
2012-06-07, 02:14:04,VALID,1006.4,VALID,0,VALID,104,VALID,0,VALID,22.9519,VALID,113,VALID,0.524219,
2012-06-07, 02:15:04,VALID,1006.4,VALID,0,VALID,104,VALID,0.112112,VALID,22.9324,VALID,92,VALID,0.873438,
2012-06-07, 02:16:04,VALID,1006.4,VALID,0,VALID,104,VALID,0.112112,VALID,22.9536,VALID,85,VALID,0.796094,
2012-06-07, 02:17:04,VALID,1006.41,VALID,0,VALID,104,VALID,0,VALID,22.9731,VALID,86,VALID,1.07656,
2012-06-07, 02:18:04,VALID,1006.41,VALID,0,VALID,104,VALID,0,VALID,22.9536,VALID,82,VALID,0.733203,
2012-06-07, 02:19:04,VALID,1006.43,VALID,0,VALID,104,VALID,0,VALID,22.9519,VALID,82,VALID,0.465625,
2012-06-07, 02:20:04,VALID,1006.46,VALID,0,VALID,104,VALID,0,VALID,22.9731,VALID,76,VALID,0.469141,
2012-06-07, 02:21:04,VALID,1006.46,VALID,0,VALID,104,VALID,0.112112,VALID,22.9519,VALID,76,VALID,0.01875,
2012-06-07, 02:22:04,VALID,1006.45,VALID,0,VALID,104,VALID,0.112112,VALID,22.9519,VALID,71,VALID,0.453906,
2012-06-07, 02:23:04,VALID,1006.47,VALID,0,VALID,104,VALID,0.112112,VALID,22.9731,VALID,60,VALID,0.469531,
2012-06-07, 02:24:04,VALID,1006.46,VALID,0,VALID,104,VALID,0,VALID,22.9731,VALID,60,VALID,0.349219,
2012-06-07, 02:25:04,VALID,1006.5,VALID,0,VALID,104,VALID,0.112112,VALID,22.9519,VALID,60,VALID,0.644922,
2012-06-07, 02:26:04,VALID,1006.47,VALID,0,VALID,104,VALID,0.112112,VALID,22.9324,VALID,60,VALID,0.410547,
2012-06-07, 02:27:04,VALID,1006.48,VALID,0,VALID,104,VALID,0.112112,VALID,22.9324,VALID,60,VALID,0.344141,
2012-06-07, 02:28:04,VALID,1006.49,VALID,0,VALID,104,VALID,0.112112,VALID,22.9342,VALID,60,VALID,0.307813,
2012-06-07, 02:29:04,VALID,1006.5,VALID,0,VALID,104,VALID,0.112112,VALID,22.8935,VALID,60,VALID,0.677734,
2012-06-07, 02:30:04,VALID,1006.5,VALID,0,VALID,104,VALID,0,VALID,22.9147,VALID,60,VALID,0.743359,
2012-06-07, 02:31:04,VALID,1006.47,VALID,0,VALID,104,VALID,0,VALID,22.9147,VALID,60,VALID,0.428125,
2012-06-07, 02:32:04,VALID,1006.5,VALID,0,VALID,104,VALID,0,VALID,22.9342,VALID,61,VALID,0.449219,
2012-06-07, 02:33:04,VALID,1006.49,VALID,0,VALID,104,VALID,0.112112,VALID,22.9147,VALID,61,VALID,0.438672,
2012-06-07, 02:34:04,VALID,1006.52,VALID,0,VALID,104,VALID,0.112112,VALID,22.9147,VALID,61,VALID,0.491016,
2012-06-07, 02:35:04,VALID,1006.55,VALID,0,VALID,104,VALID,0,VALID,22.9129,VALID,61,VALID,0.514063,
2012-06-07, 02:36:04,VALID,1006.55,VALID,0,VALID,104,VALID,0,VALID,22.9342,VALID,87,VALID,0.425,
2012-06-07, 02:37:04,VALID,1006.54,VALID,0,VALID,104,VALID,0.112112,VALID,22.9129,VALID,87,VALID,0.341016,
2012-06-07, 02:38:04,VALID,1006.53,VALID,0,VALID,104,VALID,0,VALID,22.9342,VALID,87,VALID,0.459375,
2012-06-07, 02:39:04,VALID,1006.55,VALID,0,VALID,104,VALID,0,VALID,22.9129,VALID,87,VALID,0.404297,
2012-06-07, 02:40:04,VALID,1006.56,VALID,0,VALID,104,VALID,0,VALID,22.9536,VALID,87,VALID,0.359766,
2012-06-07, 02:41:04,VALID,1006.51,VALID,0,VALID,104,VALID,0,VALID,22.9342,VALID,109,VALID,0.476172,
2012-06-07, 02:42:04,VALID,1006.5,VALID,0,VALID,104,VALID,0.112112,VALID,22.9147,VALID,120,VALID,0.848047,
2012-06-07, 02:43:04,VALID,1006.5,VALID,0,VALID,104,VALID,0.112112,VALID,22.9129,VALID,119,VALID,0.375781,
2012-06-07, 02:44:04,VALID,1006.48,VALID,0,VALID,104,VALID,0.112112,VALID,22.9147,VALID,119,VALID,0.259766,
2012-06-07, 02:45:04,VALID,1006.46,VALID,0,VALID,104,VALID,0,VALID,22.9147,VALID,106,VALID,0.674219,
2012-06-07, 02:46:04,VALID,1006.45,VALID,0,VALID,104,VALID,0,VALID,22.9147,VALID,105,VALID,0.126563,
2012-06-07, 02:47:04,VALID,1006.47,VALID,0,VALID,104,VALID,0.112112,VALID,22.9147,VALID,105,VALID,0.676172,
2012-06-07, 02:48:04,VALID,1006.45,VALID,0,VALID,104,VALID,0,VALID,22.8952,VALID,105,VALID,0.3875,
2012-06-07, 02:49:04,VALID,1006.45,VALID,0,VALID,104,VALID,0.112112,VALID,22.874,VALID,105,VALID,0.472656,
2012-06-07, 02:50:04,VALID,1006.42,VALID,0,VALID,104,VALID,0,VALID,22.8952,VALID,105,VALID,0.464063,
2012-06-07, 02:51:04,VALID,1006.45,VALID,0,VALID,104,VALID,0,VALID,22.9147,VALID,106,VALID,0.368359,
2012-06-07, 02:52:04,VALID,1006.4,VALID,0,VALID,104,VALID,0,VALID,22.9147,VALID,106,VALID,0.423047,
2012-06-07, 02:53:04,VALID,1006.41,VALID,0,VALID,104,VALID,0,VALID,22.8952,VALID,93,VALID,0.539453,
2012-06-07, 02:54:04,VALID,1006.39,VALID,0,VALID,104,VALID,0,VALID,22.9147,VALID,87,VALID,1.14922,
2012-06-07, 02:55:04,VALID,1006.38,VALID,0,VALID,104,VALID,0.112112,VALID,22.8935,VALID,86,VALID,0.804688,
2012-06-07, 02:56:04,VALID,1006.37,VALID,0,VALID,104,VALID,0.112112,VALID,22.9342,VALID,80,VALID,0.998438,
2012-06-07, 02:57:04,VALID,1006.33,VALID,0,VALID,104,VALID,0.112112,VALID,22.9129,VALID,80,VALID,0.533203,
2012-06-07, 02:58:04,VALID,1006.33,VALID,0,VALID,104,VALID,0.112112,VALID,22.9129,VALID,80,VALID,0.41875,
2012-06-07, 02:59:04,VALID,1006.31,VALID,0,VALID,104,VALID,0,VALID,22.8935,VALID,77,VALID,0.685547,
2012-06-07, 03:00:04,VALID,1006.31,VALID,0,VALID,104,VALID,0.112112,VALID,22.8935,VALID,76,VALID,0.480078,
2012-06-07, 03:01:04,VALID,1006.27,VALID,0,VALID,104,VALID,0.112112,VALID,22.8935,VALID,75,VALID,0.713281,
2012-06-07, 03:02:04,VALID,1006.26,VALID,0,VALID,104,VALID,0,VALID,22.8935,VALID,62,VALID,0.892187,
2012-06-07, 03:03:04,VALID,1006.28,VALID,0,VALID,104,VALID,0,VALID,22.8952,VALID,67,VALID,0.764844,
2012-06-07, 03:04:04,VALID,1006.29,VALID,0,VALID,104,VALID,0.112112,VALID,22.874,VALID,67,VALID,0.60625,
2012-06-07, 03:05:04,VALID,1006.29,VALID,0,VALID,104,VALID,0.112112,VALID,22.8952,VALID,67,VALID,0.373828,
2012-06-07, 03:06:04,VALID,1006.31,VALID,0,VALID,104,VALID,0,VALID,22.8545,VALID,67,VALID,0.179688,
2012-06-07, 03:07:04,VALID,1006.29,VALID,0,VALID,104,VALID,0,VALID,22.8757,VALID,67,VALID,0.00546875,
2012-06-07, 03:08:04,VALID,1006.29,VALID,0,VALID,104,VALID,0,VALID,22.8757,VALID,67,VALID,0.365234,
2012-06-07, 03:09:04,VALID,1006.27,VALID,0,VALID,104,VALID,0,VALID,22.8545,VALID,82,VALID,0.418359,
2012-06-07, 03:10:04,VALID,1006.29,VALID,0,VALID,104,VALID,0.112112,VALID,22.8545,VALID,82,VALID,0.247656,
2012-06-07, 03:11:04,VALID,1006.3,VALID,0,VALID,104,VALID,0.112112,VALID,22.8562,VALID,82,VALID,0.296875,
2012-06-07, 03:12:04,VALID,1006.3,VALID,0,VALID,104,VALID,0,VALID,22.8155,VALID,82,VALID,0.166406,
2012-06-07, 03:13:04,VALID,1006.31,VALID,0,VALID,104,VALID,0.112112,VALID,22.8368,VALID,82,VALID,0.4875,
2012-06-07, 03:14:04,VALID,1006.3,VALID,0,VALID,104,VALID,0,VALID,22.835,VALID,82,VALID,0.383594,
2012-06-07, 03:15:04,VALID,1006.28,VALID,0,VALID,104,VALID,0.112112,VALID,22.8562,VALID,82,VALID,0,
2012-06-07, 03:16:04,VALID,1006.28,VALID,0,VALID,104,VALID,0.112112,VALID,22.8155,VALID,82,VALID,0.416797,
2012-06-07, 03:17:04,VALID,1006.28,VALID,0,VALID,104,VALID,0.112112,VALID,22.8155,VALID,121,VALID,1.25625,
2012-06-07, 03:18:04,VALID,1006.25,VALID,0,VALID,104,VALID,0.112112,VALID,22.835,VALID,130,VALID,0.867578,
2012-06-07, 03:19:04,VALID,1006.27,VALID,0,VALID,104,VALID,0,VALID,22.835,VALID,130,VALID,0.910156,
2012-06-07, 03:20:04,VALID,1006.25,VALID,0,VALID,104,VALID,0,VALID,22.835,VALID,133,VALID,1.24727,
2012-06-07, 03:21:04,VALID,1006.26,VALID,0,VALID,104,VALID,0.112112,VALID,22.835,VALID,132,VALID,0.460156,
2012-06-07, 03:22:04,VALID,1006.26,VALID,0,VALID,104,VALID,0.112112,VALID,22.835,VALID,132,VALID,0.358984,
2012-06-07, 03:23:04,VALID,1006.23,VALID,0,VALID,104,VALID,0.112112,VALID,22.8368,VALID,132,VALID,0.284766,
2012-06-07, 03:24:04,VALID,1006.22,VALID,0,VALID,104,VALID,0,VALID,22.8155,VALID,132,VALID,0.558984,
2012-06-07, 03:25:04,VALID,1006.26,VALID,0,VALID,104,VALID,0.112112,VALID,22.7961,VALID,132,VALID,0.157813,
2012-06-07, 03:26:04,VALID,1006.25,VALID,0,VALID,104,VALID,0,VALID,22.7961,VALID,132,VALID,0.647266,
2012-06-07, 03:27:04,VALID,1006.23,VALID,0,VALID,104,VALID,0.112112,VALID,22.7961,VALID,123,VALID,0.461328,
2012-06-07, 03:28:04,VALID,1006.25,VALID,0,VALID,104,VALID,0.112112,VALID,22.7961,VALID,123,VALID,0.480469,
2012-06-07, 03:29:04,VALID,1006.24,VALID,0,VALID,104,VALID,0.112112,VALID,22.7961,VALID,107,VALID,0.904688,
2012-06-07, 03:30:04,VALID,1006.28,VALID,0,VALID,104,VALID,0,VALID,22.8173,VALID,99,VALID,0.625781,
2012-06-07, 03:31:04,VALID,1006.28,VALID,0,VALID,104,VALID,0.112112,VALID,22.8173,VALID,120,VALID,0.846484,
2012-06-07, 03:32:04,VALID,1006.27,VALID,0,VALID,104,VALID,0,VALID,22.8155,VALID,117,VALID,0.553516,
2012-06-07, 03:33:04,VALID,1006.26,VALID,0,VALID,104,VALID,0,VALID,22.8368,VALID,117,VALID,0.462891,
2012-06-07, 03:34:04,VALID,1006.23,VALID,0,VALID,104,VALID,0.112112,VALID,22.8155,VALID,117,VALID,0.170703,
2012-06-07, 03:35:04,VALID,1006.25,VALID,0,VALID,104,VALID,0.112112,VALID,22.835,VALID,117,VALID,0.03125,
2012-06-07, 03:36:04,VALID,1006.24,VALID,0,VALID,104,VALID,0.112112,VALID,22.8155,VALID,113,VALID,0.321094,
2012-06-07, 03:37:04,VALID,1006.24,VALID,0,VALID,104,VALID,0.112112,VALID,22.8368,VALID,93,VALID,0.981641,
2012-06-07, 03:38:04,VALID,1006.24,VALID,0,VALID,104,VALID,0.112112,VALID,22.835,VALID,101,VALID,0.991797,
2012-06-07, 03:39:04,VALID,1006.25,VALID,0,VALID,104,VALID,0.112112,VALID,22.835,VALID,103,VALID,0.328906,
2012-06-07, 03:40:04,VALID,1006.26,VALID,0,VALID,104,VALID,0.112112,VALID,22.8562,VALID,96,VALID,0.498437,
2012-06-07, 03:41:04,VALID,1006.25,VALID,0,VALID,104,VALID,0.112112,VALID,22.8562,VALID,96,VALID,0.982422,
2012-06-07, 03:42:04,VALID,1006.27,VALID,0,VALID,104,VALID,0,VALID,22.835,VALID,95,VALID,0.478516,
2012-06-07, 03:43:04,VALID,1006.27,VALID,0,VALID,104,VALID,0,VALID,22.835,VALID,105,VALID,1.00156,
2012-06-07, 03:44:04,VALID,1006.29,VALID,0,VALID,104,VALID,0,VALID,22.8368,VALID,84,VALID,0.827344,
2012-06-07, 03:45:04,VALID,1006.29,VALID,0,VALID,104,VALID,0.112112,VALID,22.835,VALID,96,VALID,0.64375,
2012-06-07, 03:46:04,VALID,1006.31,VALID,0,VALID,104,VALID,0,VALID,22.8368,VALID,117,VALID,1.21484,
2012-06-07, 03:47:04,VALID,1006.34,VALID,0,VALID,104,VALID,0,VALID,22.835,VALID,137,VALID,1.40781,
2012-06-07, 03:48:04,VALID,1006.35,VALID,0,VALID,104,VALID,0.112112,VALID,22.835,VALID,109,VALID,1.43906,